Today's Forecast

Overnight

Overnight: A slight chance of showers and thunderstorms before 2am.  Partly cloudy, with a low around 73. West wind around 5 mph.  Chance of precipitation is 20%.
Slight Chance
T-storms

Low: 73 °F

Monday

Monday: A slight chance of showers, then a chance of showers and thunderstorms after 1pm.  Mostly sunny, with a high near 91. Northeast wind around 6 mph.  Chance of precipitation is 30%. New rainfall amounts of less than a tenth of an inch, except higher amounts possible in thunderstorms.
Slight Chance
Showers then
Chance
T-storms
High: 91 °F

Weather Almanac

Today In 2020
High: 99.1°F
Low: 73.7°F

Today in 2019
High: 89.2°F
Low: 67.7°F

Columbia Metro Airport

Aug 2nd Weather Records
Astronomical Info

Sunrise:
06:37 am

Sunset:
08:22 pm
Civil Twilight    
Dawn:
06:10 am
Dusk:
08:49 pm
Moonrise: 12:33 am
Moonset: 02:50 pm
Last Qtr.Jul 31
New MoonAug 08
First Qtr.Aug 15
Full MoonAug 22
Current PhaseWaning Crescent 34%

Site menu:

About:

weather.olc.net provides weather information from NOAA, the National Weather Service, Weather Underground, and current weather data collected outside of Orangeburg, SC near Great Branch.

Regional Weather Roundup
Issued by NWS Columbia, SC


000
ASUS42 KCAE 020510
RWRCAE
REGIONAL WEATHER ROUNDUP
NATIONAL WEATHER SERVICE COLUMBIA SC
100 AM EDT MON AUG 02 2021

NOTE: "FAIR" INDICATES FEW OR NO CLOUDS BELOW 12,000 FEET WITH NO
SIGNIFICANT WEATHER AND/OR OBSTRUCTIONS TO VISIBILITY.

NOT ALL STATIONS ARE QUALITY CONTROLLED BY THE NATIONAL
WEATHER SERVICE. USE DATA WITH CAUTION...ESPECIALLY
DEWPOINT OBSERVATIONS.

SCZ001>059-115-116-135>137-GAZ040-063>065-077-020600-
...UPSTATE SOUTH CAROLINA...

CITY           SKY/WX    TMP DP  RH WIND       PRES   REMARKS
ANDERSON       CLEAR     75  69  81 CALM      29.97S
LIBERTY        CLEAR     68  67  96 CALM      29.98S
SPARTANBURG    PTCLDY    70  63  78 CALM      29.97S
CLEMSON        CLEAR     73  66  78 CALM      29.98S
GREENVILLE     PTCLDY    78  63  59 N10       29.98F
GREENWOOD      PTCLDY    72  72 100 CALM      29.97S
GREER          CLEAR     72  62  71 N3        29.98F
ROCK HILL      CLEAR     71  69  93 N5        29.96R
LAURENS        PTCLDY    73  70  88 N6        29.97S


...CENTRAL SOUTH CAROLINA...

CITY           SKY/WX    TMP DP  RH WIND       PRES   REMARKS
COLUMBIA APT   PTCLDY    81  71  71 CALM      29.92S
COLUMBIA OWENS MOCLDY    79  74  84 CALM      29.93F
MCENTIRE ANGB  MOCLDY    76  76 100 SE5       29.92S
ORANGEBURG     PTCLDY    79  75  87 S5        29.95F
SUMTER SHAW    CLOUDY    75  72  88 CALM      29.93S
NEWBERRY       PTCLDY    72  70  94 CALM      29.99
AIKEN          FAIR      76  69  77 CALM      29.97R
BARNWELL       FAIR      79  72  78 SW7       29.94F
MANNING        FAIR      73  72  94 CALM      29.94F
CAMDEN         CLOUDY    73  72  94 CALM      29.94S
LANCASTER      CLOUDY    73  72  94 CALM      29.95S
WINNSBORO      CLOUDY    73  70  88 NW6       29.95S


...EASTERN AND COASTAL SOUTH CAROLINA...

CITY           SKY/WX    TMP DP  RH WIND       PRES   REMARKS
MYRTLE BEACH   LGT RAIN  75  75 100 SW7       29.92F
N MYRTLE BCH   LGT RAIN  75  73  93 W7        29.90F
CONWAY         CLOUDY    72  72 100 SW3       29.92F
MARION         CLOUDY    72  72 100 CALM      29.92F
HARTSVILLE     FAIR      72  72 100 CALM      29.94S
FLORENCE       PTCLDY    74  71  91 SW3       29.93F
DARLINGTON     PTCLDY    73  73 100 S3        29.93S
CHARLESTON APT MOCLDY    81  74  79 CALM      29.93F
MOUNT PLEASANT MOCLDY    79  77  94 CALM      29.94F
WALTERBORO     PTCLDY    77  72  83 SW6       29.95F
BEAUFORT       PTCLDY    80  71  74 SW7       29.95F
HILTON HEAD    MOCLDY    79  72  78 VRB6      29.97R


...EASTERN GEORGIA...

CITY           SKY/WX    TMP DP  RH WIND       PRES   REMARKS
AUGUSTA BUSH F PTCLDY    78  71  79 S3        29.94R
AUGUSTA DANIEL PTCLDY    83  68  60 W5        29.96R
THOMSON        PTCLDY    78  70  75 W3        29.96R
WASHINGTON     FAIR      77  70  78 NW6       29.97S
CLAXTON        FAIR      77  71  81 CALM      29.97F
SYLVANIA       MOCLDY    78  70  76 W3        29.97S
STATESBORO     MOCLDY    76  68  77 W7        29.96F
SAVANNAH       PTCLDY    77  70  79 W9        29.97S


...SOUTHERN NORTH CAROLINA...

CITY           SKY/WX    TMP DP  RH WIND       PRES   REMARKS
CHARLOTTE      MOCLDY    73  66  78 N5        29.96S
MONROE         CLEAR     72  70  93 W3        29.94R
WADESBORO      PTCLDY    73  71  95 CALM      29.92S
ROCKINGHAM     CLEAR     73  72  98 CALM      29.92F FOG
ASHEVILLE      CLEAR     67  62  84 N7        30.07S

$$